Zurück zum Katalog

FENGYUN 2H

AktivWetterGEO
NORAD 43491·PAYLOAD·🇨🇳 China

Gestartet Jun 5, 2018 von Xichang Satellite Launch Center

Loading…

TLE

AktuellSource: Space-Track

Epoche: Sep 14, 2026, 22:43 UTC

1 43491U 18050A   26257.94722086 -.00000136  00000-0  00000-0 0  9996
2 43491   3.2562  77.9482 0002527 149.4975 186.7919  1.00272152 30333

Verfolge FENGYUN 2H in Echtzeit mit AllMySat

Download on the App Store